User: anonymous   Login
Location: Unspecified
(0.0000°N, 0.0000°E)
Time: 08:52:35
(UTC+00:00)
Language:

COSMOS 2501 (GLONASS) - Orbit

View from above orbital plane
View from above orbital plane
View from above satellite
View from above satellite

Ground track
Ground track

The orbit data is extracted from the following two-line orbital elements,

1 40315U 14075A   17177.62474594 -.00000038 +00000-0 +00000-0 0  9996
2 40315 064.4050 305.0100 0015105 204.3528 236.1222 02.13098684020011
Epoch (UTC): 26 June 2017 14:59:38
Eccentricity: 0.0015105
inclination: 64.4050°
perigee height: 19091 km
apogee height: 19168 km
right ascension of ascending node: 305.0100°
argument of perigee: 204.3528°
revolutions per day: 2.13098684
mean anomaly at epoch: 236.1222°
orbit number at epoch: 2001

The dashed part of the orbit path shows where the satellite is in the earth's shadow,  

DLR